This is the latest recevied weather packets stored in our database for station/object W7TRD. If no packets are shown the sender has not sent any weather packets the latest 10 day(s).
| Time | Temp. | Humidity | Pressure | Rain* | Wind** | Luminosity | Snow |
|---|---|---|---|---|---|---|---|
| 1787962173 | 23.89° C | 50% | 1016.2 hPa | 0 mm | - | 48 W/m² | - |
| 1787961868 | 23.33° C | 51% | 1016.4 hPa | 0 mm | - | 46 W/m² | - |
| 1787961566 | 23.33° C | 50% | 1016.5 hPa | 0 mm | - | 50 W/m² | - |
| 1787961262 | 23.33° C | 50% | 1016.4 hPa | 0 mm | - | 48 W/m² | - |
| 1787960961 | 23.33° C | 50% | 1016.7 hPa | 0 mm | - | 48 W/m² | - |
| 1787960656 | 23.89° C | 49% | 1016.4 hPa | 0 mm | - | 45 W/m² | - |
| 1787960355 | 23.89° C | 50% | 1016.5 hPa | 0 mm | - | 47 W/m² | - |
| 1787960049 | 22.78° C | 51% | 1016.5 hPa | 0 mm | - | 51 W/m² | - |
| 1787959744 | 23.33° C | 50% | 1016.6 hPa | 0 mm | - | 50 W/m² | - |
| 1787959440 | 23.33° C | 50% | 1016.6 hPa | 0 mm | - | 52 W/m² | - |
| 1787959135 | 23.33° C | 50% | 1016.7 hPa | 0 mm | - | 78 W/m² | - |
| 1787958829 | 23.89° C | 50% | 1016.7 hPa | 0 mm | - | 69 W/m² | - |
| 1787958525 | 23.33° C | 52% | 1016.8 hPa | 0 mm | - | 63 W/m² | - |
| 1787958221 | 23.33° C | 51% | 1016.7 hPa | 0 mm | - | 53 W/m² | - |
| 1787957920 | 23.33° C | 52% | 1016.9 hPa | 0 mm | - | 52 W/m² | - |
| 1787957620 | 23.33° C | 52% | 1017 hPa | 0 mm | - | 49 W/m² | - |
| 1787957315 | 22.78° C | 52% | 1016.7 hPa | 0 mm | - | 49 W/m² | - |
| 1787957014 | 23.33° C | 51% | 1016.9 hPa | 0 mm | - | 49 W/m² | - |
| 1787956713 | 23.33° C | 50% | 1016.9 hPa | 0 mm | - | 49 W/m² | - |
| 1787956410 | 23.33° C | 51% | 1017.1 hPa | 0 mm | - | 48 W/m² | - |
| 1787956104 | 23.33° C | 51% | 1017 hPa | 0 mm | - | 49 W/m² | - |
| 1787955800 | 23.33° C | 51% | 1017.3 hPa | 0 mm | - | 50 W/m² | - |
| 1787955496 | 23.33° C | 51% | 1017.3 hPa | 0 mm | - | 604 W/m² | - |
| 1787955194 | 22.78° C | 53% | 1017.5 hPa | 0 mm | - | 613 W/m² | - |
| 1787954890 | 22.78° C | 55% | 1017 hPa | 0 mm | - | 617 W/m² | - |
* Rain latest hour (hover to see other rain measurements)
** Current wind speed in m/s (hover to see current wind gust speed)